Regional Weather Roundup
Issued by NWS

Home | Current Version | Previous Version | Text Only | Print | Product List | Glossary On
Versions: 1 2 3 4 5 6 7 8 9 10 11 12 13 14 15 16 17 18 19 20 21 22 23 24 25 26 27 28 29 30 31 32 33 34 35 36 37 38 39 40 41 42 43 44 45 46 47 48 49 50
000
ASUS43 KBIS 211920
RWRND

NORTH DAKOTA REGIONAL WEATHER ROUNDUP
NATIONAL WEATHER SERVICE BISMARCK ND
200 PM CDT TUE OCT 21 2014

NOTE: "FAIR" INDICATES FEW OR NO CLOUDS BELOW 12,000 FEET WITH NO
SIGNIFICANT WEATHER AND/OR OBSTRUCTIONS TO VISIBILITY.


NDZ001>003-009>011-017-212000-
NORTHWEST NORTH DAKOTA

CITY           SKY/WX    TMP DP  RH WIND       PRES   REMARKS
WILLISTON      SUNNY     67  41  38 S9        29.63F
MINOT          SUNNY     67  40  37 SE13      29.69F
MINOT AFB      SUNNY     67  43  41 SE14      29.68F
$$

NDZ018>021-031>035-040>046-212000-
SOUTHWEST NORTH DAKOTA

CITY           SKY/WX    TMP DP  RH WIND       PRES   REMARKS
BISMARCK       SUNNY     74  45  35 SE12      29.72F
DICKINSON      SUNNY     72  45  37 S14       29.65F
GARRISON         N/A     67  42  40 SE12      29.69F
HETTINGER ARPT SUNNY     76  43  30 S14       29.70F
$$

NDZ004>008-012>016-024-026-027-054-212000-
NORTHEAST NORTH DAKOTA

CITY           SKY/WX    TMP DP  RH WIND       PRES   REMARKS
GRAND FORKS    SUNNY     63  42  46 SE26G35   29.91F
GRND FRKS AFB  SUNNY     64  42  45 SE23G31   29.89F
DEVILS LAKE    SUNNY     64  41  42 SE25G31   29.78F
$$

NDZ022-023-025-028>030-036>039-047>053-212000-
SOUTHEAST NORTH DAKOTA

CITY           SKY/WX    TMP DP  RH WIND       PRES   REMARKS
FARGO          SUNNY     65  42  43 SE22G35   29.92F
JAMESTOWN      SUNNY     70  42  36 SE22G28   29.81F
$$




USA.gov is the U.S. government's official web portal to all federal, state and local government web resources and services.